Change the Weather History Date:

Saturday, April 27, 2013

  Actual Average Record
Temperature  
Mean Temperature 53 °F 46 °F  
Max Temperature 75 °F 61 °F 88 °F (1987)
Min Temperature 30 °F 31 °F 17 °F (1970)
Degree Days  
Heating Degree Days 12 19  
Month to date heating degree days 621 590  
Since 1 July heating degree days 6842 6958  
Cooling Degree Days 0 0  
Month to date cooling degree days 0 0  
Year to date cooling degree days 0 0  
Growing Degree Days 2 (Base 50)    
Moisture  
Dew Point 28 °F    
Average Humidity 50    
Maximum Humidity 85    
Minimum Humidity 14    
Precipitation  
Precipitation 0.00 in 0.04 in 1.33 in (1978)
Month to date precipitation 0.35 0.75  
Year to date precipitation 1.93 2.95  
Sea Level Pressure  
Sea Level Pressure 30.16 in    
Wind  
Wind Speed 8 mph (NW)    
Max Wind Speed 26 mph    
Max Gust Speed 32 mph    
Visibility 10 miles    
Events      
T = Trace of Precipitation, MM = Missing Value Source: NWS Daily Summary

Daily Weather History Graph

Daily Weather History Graph

Search for Another Location

Airport or City:

Trip Planner

Search our weather history database for the weather conditions in past years. The results will help you decide how hot, cold, wet, or windy it might be!

Date:

Astronomy

Apr. 27, 2013 Rise Set
Actual Time 5:46 AM PDT 7:51 PM PDT
Civil Twilight 5:14 AM PDT 8:23 PM PDT
Nautical Twilight 4:35 AM PDT 9:03 PM PDT
Astronomical Twilight 3:52 AM PDT 9:46 PM PDT
Moon 10:30 PM PDT (4/27) 7:05 AM PDT (4/27)
Length of Visible Light 15h 09m
Length of Day
14h 05m
Waning Gibbous, 95% of the Moon is Illuminated
Apr 27
Waning Gibbous
May 2
Last Quarter
May 9
New
May 17
First Quarter
May 24
Full

Hourly Weather History & Observations

Time (PDT) Temp. Windchill Dew Point Humidity Pressure Visibility Wind Dir Wind Speed Gust Speed Precip Events Conditions
12:53 AM 42.1 °F 40.2 °F 32.0 °F 67% 30.23 in 10.0 mi NW 3.5 mph - N/A   Clear
1:53 AM 36.0 °F - 30.0 °F 79% 30.23 in 10.0 mi Calm Calm - N/A   Clear
2:53 AM 36.0 °F - 30.0 °F 79% 30.23 in 10.0 mi Calm Calm - N/A   Clear
3:53 AM 30.9 °F 26.2 °F 27.0 °F 85% 30.24 in 10.0 mi East 4.6 mph - N/A   Clear
4:53 AM 33.1 °F - 28.0 °F 82% 30.23 in 10.0 mi Calm Calm - N/A   Clear
5:53 AM 33.1 °F 28.7 °F 28.0 °F 82% 30.24 in 10.0 mi NW 4.6 mph - N/A   Clear
6:53 AM 37.0 °F - 30.9 °F 79% 30.25 in 10.0 mi Calm Calm - N/A   Clear
7:53 AM 48.0 °F - 35.1 °F 61% 30.24 in 10.0 mi Calm Calm - N/A   Clear
8:53 AM 57.9 °F - 32.0 °F 37% 30.23 in 10.0 mi Variable 5.8 mph - N/A   Clear
9:53 AM 64.0 °F - 32.0 °F 30% 30.20 in 10.0 mi NNE 4.6 mph - N/A   Clear
10:53 AM 66.9 °F - 28.0 °F 23% 30.19 in 10.0 mi NNW 3.5 mph - N/A   Clear
11:53 AM 69.1 °F - 24.1 °F 18% 30.17 in 10.0 mi Calm Calm - N/A   Clear
12:53 PM 72.0 °F - 24.1 °F 17% 30.15 in 10.0 mi NW 5.8 mph - N/A   Clear
1:53 PM 72.0 °F - 26.1 °F 18% 30.14 in 10.0 mi NW 4.6 mph - N/A   Partly Cloudy
2:53 PM 73.9 °F - 21.9 °F 14% 30.12 in 10.0 mi NW 8.1 mph - N/A   Clear
3:53 PM 73.0 °F - 21.9 °F 15% 30.09 in 10.0 mi WNW 6.9 mph - N/A   Clear
4:53 PM 73.0 °F - 23.0 °F 15% 30.09 in 10.0 mi NW 11.5 mph - N/A   Clear
5:53 PM 70.0 °F - 27.0 °F 20% 30.08 in 10.0 mi WNW 11.5 mph - N/A   Clear
6:53 PM 64.0 °F - 32.0 °F 30% 30.09 in 10.0 mi NNW 20.7 mph - N/A   Scattered Clouds
7:53 PM 60.1 °F - 33.1 °F 36% 30.09 in 10.0 mi NW 25.3 mph 31.1 mph N/A   Scattered Clouds
8:53 PM 57.0 °F - 28.9 °F 34% 30.09 in 10.0 mi NW 17.3 mph - N/A   Mostly Cloudy
9:53 PM 55.9 °F - 27.0 °F 33% 30.08 in 10.0 mi NW 23.0 mph 32.2 mph N/A   Partly Cloudy
10:53 PM 53.1 °F - 27.0 °F 37% 30.09 in 10.0 mi NW 20.7 mph 28.8 mph N/A   Clear
11:53 PM 48.9 °F - 28.0 °F 44% 30.11 in 10.0 mi Calm Calm - N/A   Clear